Home > Weather > Dausa > Past weeks

Flag for India Past Weather in Dausa, Rajasthan, India — Yesterday and Last 2 Weeks

Now
90 °F

Broken clouds.


Feels Like: 103 °F
Forecast: 78 / 88 °F
Wind: 8 mph from Northwest

Location: Jaipur / Sanganer

Current Time: Jul 31, 2016 at 3:16:38 PM

Latest Report: Jul 31, 2016 at 2:30 PM


Visibility: 4 mi

Pressure: 29.59 "Hg

Humidity: 67%

Dew Point: 77 °F

Location of DausaLocation

Past Weather in Dausa — Graph

°F

Dausa Temperature Yesterday

Maximum temperature yesterday: 88 °F (at 2:00 PM)
Minimum temperature yesterday: 77 °F (at 12:00 AM)
Average temperature yesterday: 80 °F

High & Low Weather Summary for the Past Weeks

 TemperatureHumidityPressure
High97 °F (Jul 20, 4:00 PM)100% (Jul 16, 1:30 PM)29.74 "Hg (Jul 16, 1:30 PM)
Low75 °F (Jul 16, 2:00 PM)39% (Jul 23, 2:00 PM)29.56 "Hg (Jul 20, 6:00 PM)
Average85 °F75%29.65 "Hg
* Reported Jul 16 1:30 PM — Jul 31 2:00 PM, Dausa, Weather by CustomWeather, © 2016

Note: Actual official high and low records may vary slightly from our data, if they occured in-between our weather recording intervals... More about our weather records

Advertising

Dausa Weather History for the Previous 24 Hours

Scroll right to see more
 ConditionsComfort  
Time TempWeatherWind HumidityBarometerVisibility
2:00 PM
Sun, Jul 31
90 °FBroken clouds.8 mph71%29.59 "Hg4 mi
1:30 PM90 °FFog.7 mph71%29.62 "Hg4 mi
1:00 PM88 °FBroken clouds.7 mph75%29.65 "Hg3 mi
12:00 PM86 °FBroken clouds.6 mph79%29.65 "Hg3 mi
11:00 AM86 °FBroken clouds.5 mph79%29.68 "Hg3 mi
10:00 AM82 °FBroken clouds.No wind89%29.68 "Hg3 mi
9:00 AM81 °FBroken clouds.1 mph94%29.68 "Hg2 mi
8:30 AM81 °FBroken clouds.1 mph94%29.68 "Hg2 mi
8:00 AM81 °FBroken clouds.No wind94%29.65 "Hg2 mi
7:00 AM79 °FFog.3 mph100%29.65 "Hg2 mi
6:30 AM79 °FFog.No wind100%29.62 "Hg2 mi
6:00 AM79 °FFog.2 mph100%29.62 "Hg2 mi
5:30 AM79 °FFog.3 mph100%29.62 "Hg2 mi
5:00 AM79 °FFog.3 mph100%29.62 "Hg2 mi
4:00 AM79 °FFog.2 mph100%29.62 "Hg2 mi
3:00 AM79 °FFog.6 mph100%29.62 "Hg2 mi
2:30 AM79 °FFog.2 mph100%29.62 "Hg2 mi
2:00 AM79 °FFog.7 mph100%29.62 "Hg2 mi
11:30 PM
Sat, Jul 30
79 °FFog.No wind94%29.65 "Hg2 mi
10:30 PM79 °FFog.1 mph94%29.65 "Hg2 mi
10:00 PM79 °FFog.No wind94%29.65 "Hg1 mi
9:30 PM79 °FDrizzle. Mostly cloudy.5 mph94%29.65 "Hg1 mi
9:00 PM79 °FDrizzle. Mostly cloudy.6 mph94%29.65 "Hg1 mi
8:00 PM79 °FDrizzle. Mostly cloudy.5 mph94%29.62 "Hg2 mi
7:00 PM81 °FDrizzle. Mostly cloudy.1 mph89%29.59 "Hg2 mi
6:30 PM81 °FDrizzle. Mostly cloudy.No wind89%29.59 "Hg2 mi
6:00 PM79 °FDrizzle. Mostly cloudy.6 mph94%29.59 "Hg2 mi
5:30 PM81 °FThunderstorms. Mostly cloudy.3 mph89%29.59 "Hg3 mi
5:00 PM79 °FThunderstorms. Mostly cloudy.No wind94%29.59 "Hg2 mi
4:00 PM81 °FThunderstorms. Broken clouds.13 mph89%29.56 "Hg3 mi
3:30 PM84 °FBroken clouds.8 mph84%29.59 "Hg4 mi
3:00 PM88 °FBroken clouds.7 mph70%29.59 "Hg4 mi
Weather by CustomWeather, © 2016

See weather overviewHow to use our weather pages